Hourly Weather Runaway Bay

Today, 10 April, Saturday

Time Temperature Precipitation Wind Pressure Humidity
00:00 +25°C° 0.4 mm 3 mps 756 mmHg 98%
01:00 +25°C° 0 mm 3 mps 756 mmHg 98%
02:00 +25°C° 0.3 mm 4 mps 756 mmHg 98%
03:00 +25°C° 0.3 mm 4 mps 756 mmHg 98%
04:00 +23°C° 0.3 mm 4 mps 755 mmHg 98%
05:00 +25°C° 0 mm 4 mps 756 mmHg 97%
06:00 +25°C° 0 mm 5 mps 756 mmHg 96%
07:00 +25°C° 0 mm 5 mps 756 mmHg 96%
08:00 +27°C° 0 mm 5 mps 756 mmHg 86%
09:00 +29°C° 0 mm 5 mps 757 mmHg 76%
10:00 +32°C° 0 mm 5 mps 757 mmHg 66%
11:00 +32°C° 0.7 mm 5 mps 756 mmHg 70%
12:00 +30°C° 0.7 mm 5 mps 756 mmHg 73%
13:00 +30°C° 0.7 mm 5 mps 756 mmHg 77%
14:00 +30°C° 0.7 mm 5 mps 755 mmHg 78%
15:00 +30°C° 0.7 mm 5 mps 755 mmHg 78%
16:00 +30°C° 0.7 mm 5 mps 754 mmHg 79%
17:00 +28°C° 0.4 mm 5 mps 754 mmHg 84%
18:00 +27°C° 0.4 mm 4 mps 755 mmHg 90%
19:00 +26°C° 0.4 mm 4 mps 755 mmHg 96%
20:00 +25°C° 0 mm 4 mps 755 mmHg 97%
21:00 +25°C° 0 mm 3 mps 755 mmHg 98%
22:00 +25°C° 0 mm 2 mps 756 mmHg 98%
23:00 +25°C° 0 mm 2 mps 755 mmHg 98%

Tomorrow, 11 April, Sunday

Time Temperature Precipitation Wind Pressure Humidity
00:00 +25°C° 0 mm 2 mps 755 mmHg 98%
01:00 +25°C° 0 mm 2 mps 755 mmHg 97%
02:00 +25°C° 0 mm 2 mps 755 mmHg 98%
03:00 +25°C° 0 mm 2 mps 754 mmHg 98%
04:00 +24°C° 0 mm 2 mps 754 mmHg 98%
05:00 +25°C° 0 mm 2 mps 755 mmHg 97%
06:00 +25°C° 0 mm 2 mps 755 mmHg 96%
07:00 +25°C° 0 mm 3 mps 755 mmHg 95%
08:00 +27°C° 0 mm 3 mps 755 mmHg 84%
09:00 +30°C° 0 mm 3 mps 755 mmHg 73%
10:00 +33°C° 0 mm 3 mps 756 mmHg 62%
11:00 +33°C° 0.1 mm 4 mps 755 mmHg 60%
12:00 +34°C° 0.1 mm 5 mps 754 mmHg 57%
13:00 +34°C° 0.1 mm 6 mps 754 mmHg 55%
14:00 +33°C° 0.2 mm 6 mps 754 mmHg 61%
15:00 +32°C° 0.2 mm 5 mps 753 mmHg 67%
16:00 +30°C° 0.2 mm 5 mps 753 mmHg 73%
17:00 +28°C° 0.1 mm 5 mps 753 mmHg 79%
18:00 +27°C° 0.1 mm 4 mps 754 mmHg 86%
19:00 +26°C° 0.1 mm 4 mps 754 mmHg 92%
20:00 +25°C° 0 mm 3 mps 754 mmHg 94%
21:00 +25°C° 0 mm 3 mps 755 mmHg 96%
22:00 +25°C° 0 mm 3 mps 755 mmHg 98%
23:00 +25°C° 0 mm 2 mps 755 mmHg 98%

Day after tomorrow, 12 April, Monday

Time Temperature Precipitation Wind Pressure Humidity
00:00 +25°C° 0 mm 2 mps 755 mmHg 98%
01:00 +24°C° 0 mm 1 mps 755 mmHg 98%
02:00 +25°C° 0 mm 1 mps 755 mmHg 98%
03:00 +25°C° 0 mm 1 mps 754 mmHg 97%
04:00 +25°C° 0 mm 1 mps 754 mmHg 97%
05:00 +25°C° 0 mm 1 mps 755 mmHg 95%
06:00 +25°C° 0 mm 2 mps 755 mmHg 94%
07:00 +25°C° 0 mm 2 mps 756 mmHg 93%
08:00 +28°C° 0 mm 2 mps 756 mmHg 81%
09:00 +30°C° 0 mm 3 mps 756 mmHg 69%
10:00 +33°C° 0 mm 4 mps 756 mmHg 57%
11:00 +34°C° 0 mm 4 mps 756 mmHg 53%
12:00 +35°C° 0 mm 5 mps 755 mmHg 49%
13:00 +36°C° 0 mm 5 mps 755 mmHg 46%
14:00 +36°C° 0 mm 5 mps 754 mmHg 50%
15:00 +35°C° 0 mm 5 mps 754 mmHg 53%
16:00 +34°C° 0 mm 6 mps 753 mmHg 57%
17:00 +32°C° 0 mm 5 mps 754 mmHg 68%
18:00 +29°C° 0 mm 4 mps 754 mmHg 79%
19:00 +27°C° 0 mm 3 mps 754 mmHg 90%
20:00 +26°C° 0 mm 3 mps 755 mmHg 93%
21:00 +25°C° 0 mm 2 mps 755 mmHg 95%
22:00 +24°C° 0 mm 1 mps 756 mmHg 97%
23:00 +24°C° 0 mm 1 mps 756 mmHg 97%

13 April, Tuesday

Time Temperature Precipitation Wind Pressure Humidity
00:00 +25°C° 0 mm 2 mps 755 mmHg 96%
01:00 +25°C° 0 mm 2 mps 755 mmHg 96%
02:00 +24°C° 0 mm 2 mps 755 mmHg 95%
03:00 +24°C° 0 mm 2 mps 755 mmHg 94%
04:00 +24°C° 0 mm 2 mps 755 mmHg 93%
05:00 +25°C° 0 mm 2 mps 755 mmHg 89%
06:00 +25°C° 0 mm 2 mps 756 mmHg 84%
07:00 +26°C° 0 mm 2 mps 756 mmHg 79%
08:00 +28°C° 0 mm 2 mps 756 mmHg 71%
09:00 +30°C° 0 mm 3 mps 757 mmHg 63%
10:00 +34°C° 0 mm 3 mps 757 mmHg 55%
11:00 +34°C° 0 mm 3 mps 756 mmHg 52%
12:00 +35°C° 0 mm 3 mps 756 mmHg 50%
13:00 +35°C° 0 mm 3 mps 756 mmHg 48%
14:00 +35°C° 0 mm 3 mps 755 mmHg 48%
15:00 +35°C° 0 mm 3 mps 755 mmHg 49%
16:00 +34°C° 0 mm 3 mps 754 mmHg 49%
17:00 +31°C° 0 mm 2 mps 754 mmHg 58%
18:00 +29°C° 0 mm 2 mps 755 mmHg 67%
19:00 +27°C° 0 mm 1 mps 755 mmHg 76%
20:00 +26°C° 0 mm 2 mps 755 mmHg 79%
21:00 +25°C° 0 mm 2 mps 756 mmHg 83%
22:00 +25°C° 0 mm 3 mps 756 mmHg 86%
23:00 +25°C° 0 mm 3 mps 756 mmHg 88%

14 April, Wednesday

Time Temperature Precipitation Wind Pressure Humidity
00:00 +24°C° 0 mm 3 mps 756 mmHg 90%
01:00 +24°C° 0 mm 3 mps 756 mmHg 92%
02:00 +24°C° 0 mm 3 mps 755 mmHg 93%
03:00 +24°C° 0 mm 3 mps 755 mmHg 94%
04:00 +24°C° 0 mm 3 mps 755 mmHg 96%
05:00 +25°C° 0 mm 3 mps 755 mmHg 93%
06:00 +25°C° 0 mm 4 mps 756 mmHg 90%
07:00 +26°C° 0 mm 4 mps 756 mmHg 87%
08:00 +28°C° 0 mm 4 mps 756 mmHg 77%
09:00 +32°C° 0 mm 5 mps 757 mmHg 67%
10:00 +34°C° 0 mm 5 mps 757 mmHg 56%
11:00 +35°C° 0 mm 5 mps 756 mmHg 51%
12:00 +36°C° 0 mm 5 mps 756 mmHg 46%
13:00 +37°C° 0 mm 5 mps 755 mmHg 41%
14:00 +36°C° 0 mm 5 mps 755 mmHg 43%
15:00 +35°C° 0 mm 5 mps 754 mmHg 46%
16:00 +35°C° 0 mm 5 mps 754 mmHg 48%
17:00 +32°C° 0 mm 4 mps 754 mmHg 61%
18:00 +29°C° 0 mm 4 mps 754 mmHg 74%
19:00 +27°C° 0 mm 3 mps 754 mmHg 86%
20:00 +26°C° 0 mm 2 mps 755 mmHg 90%
21:00 +25°C° 0 mm 2 mps 755 mmHg 93%
22:00 +25°C° 0 mm 1 mps 755 mmHg 97%
23:00 +24°C° 0 mm 1 mps 755 mmHg 97%

15 April, Thursday

Time Temperature Precipitation Wind Pressure Humidity
00:00 +24°C° 0 mm 1 mps 755 mmHg 97%
01:00 +24°C° 0 mm 1 mps 755 mmHg 97%
02:00 +24°C° 0 mm 1 mps 755 mmHg 97%
03:00 +24°C° 0 mm 1 mps 755 mmHg 97%
04:00 +23°C° 0 mm 1 mps 755 mmHg 97%
05:00 +24°C° 0 mm 1 mps 755 mmHg 92%
06:00 +25°C° 0 mm 1 mps 755 mmHg 87%
07:00 +25°C° 0 mm 1 mps 755 mmHg 82%
08:00 +28°C° 0 mm 1 mps 756 mmHg 67%
09:00 +31°C° 0 mm 2 mps 756 mmHg 52%
10:00 +35°C° 0 mm 2 mps 756 mmHg 37%
11:00 +36°C° 0 mm 2 mps 755 mmHg 34%
12:00 +37°C° 0 mm 3 mps 754 mmHg 31%
13:00 +38°C° 0 mm 3 mps 754 mmHg 28%
14:00 +37°C° 0 mm 3 mps 753 mmHg 33%
15:00 +36°C° 0 mm 3 mps 753 mmHg 38%
16:00 +35°C° 0 mm 4 mps 753 mmHg 44%
17:00 +31°C° 0 mm 3 mps 753 mmHg 57%
18:00 +29°C° 0 mm 2 mps 754 mmHg 71%
19:00 +26°C° 0 mm 2 mps 754 mmHg 84%
20:00 +25°C° 0 mm 1 mps 754 mmHg 86%
21:00 +25°C° 0 mm 1 mps 755 mmHg 88%
22:00 +25°C° 0 mm 1 mps 755 mmHg 91%
23:00 +24°C° 0 mm 1 mps 755 mmHg 91%
Show more